TimeEST,TemperatureF,Dew PointF,Humidity,Sea Level PressureIn,VisibilityMPH,Wind Direction,Wind SpeedMPH,Gust SpeedMPH,PrecipitationIn,Events,Conditions,WindDirDegrees,DateUTC
12:53 AM,21.0,8.1,57,30.36,10.0,NW,5.8,-,N/A,,Overcast,310,2013-01-18 05:53:00
1:53 AM,21.9,8.1,55,30.38,10.0,NW,6.9,-,N/A,,Overcast,320,2013-01-18 06:53:00
2:53 AM,21.9,8.1,55,30.41,10.0,NW,4.6,-,N/A,,Overcast,320,2013-01-18 07:53:00
3:53 AM,21.9,8.1,55,30.43,10.0,WNW,8.1,-,N/A,,Overcast,300,2013-01-18 08:53:00
4:53 AM,21.9,6.1,51,30.42,10.0,West,9.2,-,N/A,,Overcast,280,2013-01-18 09:53:00
5:53 AM,19.9,6.1,55,30.44,10.0,West,8.1,-,N/A,,Mostly Cloudy,280,2013-01-18 10:53:00
6:53 AM,19.9,7.0,57,30.44,10.0,Calm,Calm,-,N/A,,Overcast,0,2013-01-18 11:53:00
7:53 AM,19.9,7.0,57,30.45,10.0,Calm,Calm,-,N/A,,Mostly Cloudy,0,2013-01-18 12:53:00
8:53 AM,21.9,8.1,55,30.45,10.0,South,3.5,-,N/A,,Scattered Clouds,190,2013-01-18 13:53:00
9:53 AM,24.1,8.1,51,30.45,10.0,South,6.9,-,N/A,,Mostly Cloudy,180,2013-01-18 14:53:00
10:53 AM,27.0,12.0,53,30.44,10.0,South,10.4,-,N/A,,Overcast,170,2013-01-18 15:53:00
11:53 AM,28.9,15.1,56,30.40,10.0,SW,13.8,-,N/A,,Overcast,220,2013-01-18 16:53:00
12:53 PM,30.9,16.0,54,30.34,10.0,SSW,16.1,-,N/A,,Overcast,210,2013-01-18 17:53:00
1:53 PM,34.0,15.1,46,30.28,10.0,SSW,18.4,25.3,N/A,,Mostly Cloudy,210,2013-01-18 18:53:00
2:53 PM,36.0,17.1,46,30.23,10.0,SSW,18.4,28.8,N/A,,Clear,200,2013-01-18 19:53:00
3:53 PM,35.1,18.0,50,30.20,10.0,SSW,25.3,-,N/A,,Clear,200,2013-01-18 20:53:00
4:53 PM,35.1,19.0,52,30.16,10.0,South,19.6,28.8,N/A,,Scattered Clouds,190,2013-01-18 21:53:00
5:53 PM,35.1,19.9,54,30.14,10.0,SSW,19.6,27.6,N/A,,Clear,200,2013-01-18 22:53:00
6:53 PM,35.1,19.9,54,30.11,10.0,SSW,23.0,28.8,N/A,,Mostly Cloudy,200,2013-01-18 23:53:00
7:53 PM,36.0,18.0,48,30.07,10.0,SSW,23.0,34.5,N/A,,Clear,200,2013-01-19 00:53:00
8:53 PM,36.0,19.0,50,30.05,10.0,SSW,27.6,33.4,N/A,,Clear,210,2013-01-19 01:53:00
9:53 PM,36.0,19.9,52,30.05,10.0,SSW,20.7,26.5,N/A,,Clear,210,2013-01-19 02:53:00
10:53 PM,36.0,21.0,55,30.03,10.0,SSW,18.4,25.3,N/A,,Clear,210,2013-01-19 03:53:00
11:53 PM,36.0,21.9,57,30.00,10.0,SSW,15.0,26.5,N/A,,Clear,210,2013-01-19 04:53:00